Weather in Nakuru

Kenya     0°14′13″N   36°08′27″E
temp.,
°C
wind,
m/s
gust,
m/s
humid.,
%
clouds,
%
prec.,
mm/h
press.,
hPa
HPBL,
m
20 april, tue
tue2000:00+12ne2188100 0.0 101714
03:00+11nne1191100 0.0 101610
06:00+10ne219371 0.0 101714
09:00+17ne256398 0.0 1017890
12:00+22ne3541100 0.0 10132216
15:00+20ne465281 0.2 10111082
18:00+15e3783100 1.1 1013296
21:00+14ese2488100 1.9 1016137
21 april, wed
wed2100:00+13ene1288100 0.3 101671
03:00+12e1191100 0.3 101611
06:00+11e229363 0.0 101716
09:00+17sse136746 0.0 1016672
12:00+23n2539100 0.1 10122453
15:00+20e2454100 0.3 1011631
18:00+15ene3683100 1.3 1014247
21:00+14sse2390100 3.1 101675
22 april, thu
thu2200:00+13ese2293100 0.6 101666
03:00+12ese1196100 0.8 101624
06:00+12ese2296100 0.0 101752
09:00+17se2371100 0.0 1017531
12:00+22nw0444100 0.2 10142049
15:00+18se2464100 0.6 1012330
18:00+15nne1384100 2.4 1014116
21:00+14ene018896 3.6 101612
23 april, fri
fri2300:00+13ese1194100 0.0 101713
03:00+11ese2297100 0.0 101640
06:00+11e1195100 0.0 101711
09:00+16se1274100 0.0 1017467
12:00+22wsw1449100 0.4 10131811
15:00+18nnw0173100 2.0 101291
18:00+15ene248686 2.1 1014186
21:00+14e229199 3.1 101649
24 april, sat
sat2400:00+13e1191100 0.2 101612
03:00+11e219398 0.2 101513
06:00+11ene11935 0.0 101610
09:00+17s127124 0.0 1016592
12:00+21ne145182 0.5 10121643
15:00+19nnw246479 2.0 1011698
18:00+15e2587100 2.6 1013319
21:00+13ese2394100 10.9 1016138